TimeMST,TemperatureF,Dew PointF,Humidity,Sea Level PressureIn,VisibilityMPH,Wind Direction,Wind SpeedMPH,Gust SpeedMPH,PrecipitationIn,Events,Conditions,WindDirDegrees,DateUTC
12:15 AM,-0.9,-4.9,83,30.06,10.0,NNW,3.5,-,N/A,,Clear,330,2013-01-15 07:15:00
12:35 AM,-2.0,-5.6,85,30.06,10.0,Calm,Calm,-,N/A,,Clear,0,2013-01-15 07:35:00
12:55 AM,-2.7,-6.5,84,30.06,10.0,NW,4.6,-,N/A,,Clear,310,2013-01-15 07:55:00
1:15 AM,-2.9,-6.7,84,30.07,10.0,NNW,3.5,-,N/A,,Clear,330,2013-01-15 08:15:00
1:35 AM,-4.0,-7.8,84,30.07,10.0,NW,4.6,-,N/A,,Clear,310,2013-01-15 08:35:00
1:55 AM,-3.3,-7.1,84,30.07,10.0,NW,4.6,-,N/A,,Clear,320,2013-01-15 08:55:00
2:15 AM,-4.0,-8.1,82,30.07,10.0,NW,4.6,-,N/A,,Clear,320,2013-01-15 09:15:00
2:35 AM,-3.6,-8.0,82,30.08,10.0,NW,5.8,-,N/A,,Clear,310,2013-01-15 09:35:00
2:55 AM,-4.7,-9.0,82,30.09,10.0,NNW,5.8,-,N/A,,Clear,330,2013-01-15 09:55:00
3:15 AM,-5.1,-9.2,82,30.10,10.0,NW,5.8,-,N/A,,Clear,310,2013-01-15 10:15:00
3:35 AM,-5.8,-10.3,81,30.10,10.0,WNW,4.6,-,N/A,,Clear,300,2013-01-15 10:35:00
4:15 AM,-5.8,-10.3,81,30.10,10.0,NW,4.6,-,N/A,,Clear,310,2013-01-15 11:15:00
4:35 AM,-5.8,-10.5,80,30.10,10.0,NW,6.9,-,N/A,,Clear,310,2013-01-15 11:35:00
4:55 AM,-6.0,-10.5,81,30.10,10.0,NW,5.8,-,N/A,,Clear,310,2013-01-15 11:55:00
5:15 AM,-6.5,-11.2,80,30.10,10.0,NW,5.8,-,N/A,,Clear,310,2013-01-15 12:15:00
5:35 AM,-6.9,-11.7,79,30.10,10.0,NW,6.9,-,N/A,,Clear,320,2013-01-15 12:35:00
5:55 AM,-6.5,-11.4,79,30.11,10.0,NW,6.9,-,N/A,,Clear,310,2013-01-15 12:55:00
6:15 AM,-6.7,-11.6,79,30.11,10.0,NW,6.9,-,N/A,,Clear,310,2013-01-15 13:15:00
6:35 AM,-6.9,-11.4,81,30.11,10.0,NW,6.9,-,N/A,,Clear,320,2013-01-15 13:35:00
6:55 AM,-7.4,-12.3,79,30.13,10.0,WNW,4.6,-,N/A,,Clear,300,2013-01-15 13:55:00
7:15 AM,-6.9,-12.1,78,30.14,10.0,NW,4.6,-,N/A,,Clear,320,2013-01-15 14:15:00
7:35 AM,-8.9,-13.7,79,30.15,10.0,NW,5.8,-,N/A,,Clear,310,2013-01-15 14:35:00
7:55 AM,-6.9,-11.6,80,30.16,10.0,NNW,5.8,-,N/A,,Clear,330,2013-01-15 14:55:00
8:15 AM,-3.8,-8.3,81,30.16,10.0,NW,3.5,-,N/A,,Clear,320,2013-01-15 15:15:00
8:35 AM,-1.1,-6.0,80,30.17,10.0,NNW,5.8,-,N/A,,Clear,330,2013-01-15 15:35:00
8:55 AM,-0.2,-5.4,79,30.18,10.0,NNW,4.6,-,N/A,,Clear,330,2013-01-15 15:55:00
9:15 AM,2.7,-2.4,79,30.19,10.0,NNW,6.9,-,N/A,,Clear,340,2013-01-15 16:15:00
9:35 AM,7.7,2.1,78,30.20,10.0,NNW,8.1,-,N/A,,Clear,340,2013-01-15 16:35:00
9:55 AM,10.6,3.4,73,30.21,10.0,North,10.4,-,N/A,,Clear,350,2013-01-15 16:55:00
10:15 AM,13.3,3.4,65,30.20,10.0,North,8.1,-,N/A,,Clear,350,2013-01-15 17:15:00
10:35 AM,16.0,1.4,53,30.20,10.0,NNW,10.4,-,N/A,,Clear,340,2013-01-15 17:35:00
10:55 AM,16.5,-2.4,43,30.20,10.0,NNW,16.1,21.9,N/A,,Clear,340,2013-01-15 17:55:00
11:15 AM,17.2,-1.8,43,30.19,10.0,NNW,19.6,23.0,N/A,,Clear,340,2013-01-15 18:15:00
11:35 AM,18.5,-1.5,42,30.18,10.0,North,17.3,24.2,N/A,,Clear,350,2013-01-15 18:35:00
11:55 AM,19.8,-1.3,40,30.18,10.0,NNW,16.1,21.9,N/A,,Clear,340,2013-01-15 18:55:00
12:15 PM,20.7,-1.3,38,30.18,10.0,North,15.0,23.0,N/A,,Clear,350,2013-01-15 19:15:00
12:35 PM,21.7,-3.3,33,30.18,10.0,NNW,16.1,24.2,N/A,,Clear,340,2013-01-15 19:35:00
12:55 PM,22.8,-3.6,31,30.17,10.0,NNW,19.6,24.2,N/A,,Clear,340,2013-01-15 19:55:00
1:15 PM,23.4,-3.8,30,30.16,10.0,North,17.3,24.2,N/A,,Clear,350,2013-01-15 20:15:00
1:35 PM,23.9,-4.2,29,30.16,10.0,North,13.8,23.0,N/A,,Clear,360,2013-01-15 20:35:00
1:55 PM,24.3,-4.0,29,30.16,10.0,North,16.1,21.9,N/A,,Clear,350,2013-01-15 20:55:00
2:15 PM,24.8,-4.0,28,30.18,10.0,North,18.4,27.6,N/A,,Clear,350,2013-01-15 21:15:00
2:35 PM,25.2,-3.8,28,30.18,10.0,North,18.4,25.3,N/A,,Clear,360,2013-01-15 21:35:00
2:55 PM,24.8,-3.5,29,30.19,10.0,NNW,16.1,-,N/A,,Clear,340,2013-01-15 21:55:00
3:15 PM,25.5,-3.3,29,30.20,10.0,NNW,16.1,21.9,N/A,,Clear,340,2013-01-15 22:15:00
3:35 PM,25.0,-3.3,29,30.21,10.0,North,15.0,-,N/A,,Clear,350,2013-01-15 22:35:00
3:55 PM,24.8,-2.7,30,30.21,10.0,NNW,16.1,20.7,N/A,,Clear,340,2013-01-15 22:55:00
4:15 PM,24.4,-2.4,31,30.23,10.0,North,16.1,19.6,N/A,,Clear,350,2013-01-15 23:15:00
4:35 PM,23.7,-2.2,32,30.24,10.0,North,13.8,-,N/A,,Clear,350,2013-01-15 23:35:00
4:55 PM,22.5,-2.2,34,30.24,10.0,North,8.1,-,N/A,,Clear,360,2013-01-15 23:55:00
5:15 PM,20.1,-2.2,38,30.24,10.0,North,8.1,-,N/A,,Clear,360,2013-01-16 00:15:00
5:35 PM,18.3,-2.2,41,30.26,10.0,NNW,5.8,-,N/A,,Clear,330,2013-01-16 00:35:00
5:55 PM,14.9,-3.1,45,30.26,10.0,NW,6.9,-,N/A,,Clear,320,2013-01-16 00:55:00
6:15 PM,13.5,-3.3,47,30.26,10.0,West,4.6,-,N/A,,Clear,280,2013-01-16 01:15:00
6:35 PM,12.4,-3.3,50,30.26,10.0,WNW,5.8,-,N/A,,Clear,290,2013-01-16 01:35:00
6:55 PM,12.6,-2.9,50,30.27,10.0,WNW,4.6,-,N/A,,Clear,290,2013-01-16 01:55:00
7:15 PM,12.2,-2.4,52,30.28,10.0,WNW,6.9,-,N/A,,Clear,300,2013-01-16 02:15:00
7:35 PM,11.1,-2.2,55,30.28,10.0,WNW,6.9,-,N/A,,Clear,290,2013-01-16 02:35:00
7:55 PM,8.8,-3.5,58,30.29,10.0,NW,4.6,-,N/A,,Clear,320,2013-01-16 02:55:00
8:15 PM,7.7,-3.6,60,30.29,10.0,NW,4.6,-,N/A,,Clear,320,2013-01-16 03:15:00
8:35 PM,5.9,-4.4,63,30.30,10.0,NW,4.6,-,N/A,,Clear,310,2013-01-16 03:35:00
8:55 PM,6.6,-4.2,61,30.30,10.0,WNW,4.6,-,N/A,,Clear,300,2013-01-16 03:55:00
9:15 PM,7.2,-3.8,61,30.31,10.0,WNW,4.6,-,N/A,,Clear,300,2013-01-16 04:15:00
9:35 PM,3.4,-5.3,67,30.32,10.0,NW,3.5,-,N/A,,Clear,320,2013-01-16 04:35:00
9:55 PM,3.4,-5.4,67,30.32,10.0,NW,3.5,-,N/A,,Clear,310,2013-01-16 04:55:00
10:15 PM,5.0,-4.2,66,30.32,10.0,NW,4.6,-,N/A,,Clear,310,2013-01-16 05:15:00
10:35 PM,1.4,-5.6,72,30.33,10.0,Calm,Calm,-,N/A,,Clear,0,2013-01-16 05:35:00
11:15 PM,-0.9,-7.4,74,30.33,10.0,Calm,Calm,-,N/A,,Clear,0,2013-01-16 06:15:00
11:35 PM,1.2,-5.1,75,30.33,10.0,NNW,3.5,-,N/A,,Clear,330,2013-01-16 06:35:00
11:55 PM,2.8,-4.4,72,30.33,10.0,NW,4.6,-,N/A,,Clear,310,2013-01-16 06:55:00